RH
22 22 24 24 24 24 24 23 23 22 21 20 19 17 16 16 17 16 15 15 16 17 20 21 21 21 20 16 14 13 13 12 12 11 10 9 9 9 9 10 10 10 11 12 13 14 14 19 23 25 24 22 21 21 22 24 23 21 18 15 15 17 23 25 26 26 24 24 25 25 25 25 26 27 28 28 28 28 27 27 27 27 26 26 25 26 27 26 26 26 27 27 27 27 28 28 28 28 28 28 27 27 28
21 23 24 24 25 25 24 24 24 24 23 21 20 19 18 18 18 17 16 16 17 19 21 24 24 24 25 19 16 15 13 12 12 11 10 10 10 10 10 10 10 11 11 12 13 14 16 20 24 26 25 24 21 21 24 26 26 24 21 18 17 19 24 26 26 27 26 27 27 28 28 29 29 29 29 29 29 29 29 29 29 28 28 27 26 25 25 26 26 27 28 28 28 28 28 28 28 28 28 28 28 28 28
23 24 25 25 25 25 25 25 25 25 25 23 23 23 22 21 20 19 19 21 23 24 24 24 25 26 28 22 19 17 13 12 11 11 11 10 10 10 10 11 11 11 11 12 13 14 16 21 24 26 26 25 22 21 25 28 28 27 23 22 21 22 26 27 27 28 29 29 30 30 30 30 30 30 30 30 30 30 30 30 30 30 30 29 29 28 27 28 27 27 30 30 30 29 30 29 29 29 29 29 29 29 29
25 25 26 25 24 24 24 26 27 27 27 26 26 26 27 25 24 23 24 26 27 27 26 24 25 27 29 24 21 18 14 12 11 11 10 10 10 10 10 11 11 11 11 12 13 14 16 20 24 26 27 25 22 22 26 29 30 28 25 24 24 25 27 28 28 29 30 31 31 31 31 31 31 30 31 31 30 30 29 29 30 31 31 30 30 29 28 27 27 27 28 29 30 30 30 31 31 31 31 29 29 30 30
26 26 26 26 24 24 24 27 28 27 27 28 28 28 28 28 28 27 27 29 30 29 28 26 28 29 29 25 22 19 14 12 11 11 10 10 10 10 10 11 11 11 11 11 12 13 14 18 21 24 25 24 24 25 27 29 29 28 27 25 25 27 29 29 30 30 31 31 31 31 31 31 31 30 31 31 30 29 28 28 28 29 30 30 28 26 25 23 23 24 26 27 28 28 29 31 31 31 32 30 30 30 30
24 24 23 24 24 25 26 28 28 27 29 29 29 29 30 30 30 29 27 29 30 30 30 29 30 30 28 25 22 18 13 12 11 11 10 10 10 11 11 11 11 11 11 11 12 12 13 16 18 21 22 23 26 28 29 27 26 26 26 25 26 27 29 29 29 30 31 30 30 29 29 28 28 28 29 27 27 28 28 27 25 24 24 24 23 21 22 20 19 19 20 22 24 26 27 28 29 29 29 30 31 30 30
23 24 24 25 25 25 27 27 28 29 30 31 30 29 30 31 31 30 26 28 30 31 31 31 30 29 26 24 21 17 13 12 11 11 11 11 11 11 11 11 11 11 11 11 12 12 12 14 15 18 19 22 26 29 30 26 23 23 25 24 26 27 28 28 29 29 28 28 27 26 27 26 25 25 25 24 24 24 23 23 21 19 19 18 18 17 17 16 16 16 16 17 19 20 23 24 25 26 27 28 28 28 29
24 25 26 26 28 29 30 29 30 32 32 32 30 29 32 32 32 31 29 27 29 32 32 30 28 25 23 21 18 15 12 12 11 11 11 11 11 11 11 11 11 11 11 12 12 12 12 13 14 15 18 21 24 27 27 24 23 23 24 24 25 27 28 28 28 28 27 26 25 24 24 24 23 23 24 21 21 20 17 17 17 17 17 17 17 17 16 17 17 18 17 17 17 18 19 20 21 22 24 25 26 26 27
27 27 28 30 31 30 30 32 33 35 34 35 32 30 32 33 34 33 32 29 30 31 31 29 26 22 20 17 15 13 12 11 11 11 11 11 11 11 12 12 12 12 12 12 12 12 12 13 13 14 16 18 21 22 23 22 23 24 24 24 26 27 26 26 25 24 23 22 22 22 20 21 22 23 26 24 22 20 19 17 17 17 17 18 18 19 17 18 18 18 20 21 22 21 21 21 21 22 22 23 23 24 25
30 30 30 31 32 32 33 35 35 35 35 37 36 34 31 35 36 36 35 32 30 30 30 27 23 19 16 15 13 12 12 12 12 11 12 12 12 12 12 12 12 12 12 12 12 12 12 13 13 14 14 16 17 19 19 21 22 24 24 25 26 27 26 24 22 21 21 20 21 21 20 23 25 27 27 28 25 22 22 20 19 20 20 20 21 20 18 18 19 20 22 24 27 28 26 27 27 27 26 25 24 24 24
31 32 32 33 33 34 35 36 37 38 36 38 39 38 35 37 37 37 36 33 31 29 28 24 20 17 15 14 13 13 12 12 12 12 12 12 12 12 12 12 12 12 12 12 12 12 12 12 12 13 13 14 15 16 18 20 22 24 24 27 28 27 25 23 21 20 20 20 21 22 23 29 30 29 29 30 27 23 23 22 22 23 24 23 23 22 20 20 20 20 22 25 27 29 28 30 30 29 30 29 28 26 26
32 33 33 34 34 34 35 37 39 41 40 38 40 41 39 38 37 37 36 33 31 28 25 22 19 17 16 15 15 14 14 14 13 13 13 13 13 12 12 12 12 12 12 11 11 11 11 11 12 12 13 13 14 15 17 19 21 24 25 28 28 27 25 23 22 22 23 24 25 26 28 31 31 31 31 30 28 25 24 24 24 25 27 26 26 25 24 23 22 21 21 23 25 27 28 30 30 29 29 29 28 27 28
33 33 34 34 33 33 32 33 36 38 38 37 38 39 39 38 36 36 35 33 30 27 24 22 20 19 18 18 17 16 16 16 15 15 14 14 13 13 12 12 12 11 11 11 11 11 11 11 11 12 13 13 14 15 17 20 22 25 27 27 28 28 27 25 25 26 27 27 28 28 26 28 29 28 29 27 25 24 25 25 25 25 26 28 30 29 27 26 25 24 22 23 24 25 28 29 29 29 30 28 28 27 27
34 34 34 34 32 31 29 30 31 32 34 35 37 37 37 35 34 34 34 31 28 25 24 23 22 21 21 20 19 19 18 18 17 16 15 15 14 14 13 13 12 12 11 11 11 11 12 12 12 13 13 14 15 16 18 21 24 27 29 28 28 28 29 29 30 31 30 30 31 30 26 25 24 25 26 25 24 24 24 24 25 26 27 29 31 32 31 28 26 24 24 26 27 28 28 29 31 31 31 28 26 26 26
34 34 35 34 32 30 29 30 30 31 32 34 34 35 33 32 31 31 31 28 26 25 24 23 23 22 22 22 21 20 20 19 18 18 17 16 15 15 14 13 13 13 12 12 12 13 13 14 15 15 16 15 16 17 18 21 25 28 32 31 31 32 33 33 34 34 32 31 32 32 28 26 26 26 26 26 25 25 24 25 26 28 30 31 32 32 31 28 26 25 25 27 29 30 31 31 32 33 32 29 27 27 27
34 35 35 33 31 30 29 30 30 31 31 32 32 31 30 29 29 28 27 26 25 25 24 24 23 23 23 23 22 22 21 20 19 19 18 17 16 16 15 14 14 14 14 14 14 15 15 16 17 18 19 17 17 17 19 21 24 29 33 35 36 37 37 38 38 37 34 32 31 31 30 29 30 31 31 30 28 26 26 26 27 29 31 33 34 33 31 28 27 26 26 29 31 33 34 34 34 34 32 30 29 28 29
35 36 35 33 31 30 30 29 30 30 30 30 29 29 28 28 27 27 26 26 25 25 24 24 24 24 24 23 23 22 21 21 20 19 19 18 17 17 16 16 16 16 16 16 16 17 17 18 19 20 21 19 18 18 19 20 23 27 33 36 38 38 39 40 40 38 36 34 32 31 29 29 31 33 34 33 31 29 28 28 28 30 32 34 36 35 32 30 29 29 29 30 32 35 37 38 38 37 35 34 32 32 33
35 36 35 34 33 31 30 30 29 29 29 28 28 27 27 27 27 27 26 25 25 25 25 25 24 24 24 23 23 22 22 22 21 20 20 19 19 19 19 18 18 18 18 18 18 18 18 19 20 21 22 20 19 18 18 19 21 25 30 34 37 39 39 42 42 41 39 36 34 33 30 30 31 32 34 34 33 32 31 31 30 30 31 34 35 35 33 32 31 31 31 32 33 35 38 41 41 40 38 36 35 35 36
35 36 35 35 34 33 32 30 29 29 29 28 27 26 26 26 26 26 26 25 25 25 25 25 25 24 24 24 23 23 22 22 22 21 21 21 21 21 21 20 20 20 20 19 19 19 18 19 20 21 22 21 20 19 19 19 20 22 27 31 36 39 42 44 45 44 41 40 37 34 32 32 32 32 33 35 35 35 33 32 32 32 31 32 33 34 34 33 33 33 33 33 33 35 37 41 43 43 41 39 37 37 38
35 36 35 36 35 34 32 31 30 29 29 29 28 26 25 25 25 25 25 25 25 25 25 24 24 24 24 24 23 23 23 23 23 23 23 23 23 23 22 22 22 21 20 20 20 19 19 19 20 21 22 22 20 20 20 20 21 23 25 29 33 38 43 45 46 45 43 41 38 35 35 34 34 34 34 35 35 35 34 33 33 32 31 31 32 33 34 34 34 33 34 34 34 34 35 38 42 44 43 40 39 38 38
35 35 35 35 35 34 32 31 30 30 28 29 28 26 25 24 24 24 24 24 24 24 24 23 23 23 23 23 23 23 23 23 24 24 24 24 24 24 24 23 23 22 22 21 20 20 20 20 21 22 23 22 22 22 22 23 24 25 26 28 32 36 40 44 45 45 44 40 38 37 36 36 35 35 34 34 35 35 34 33 33 33 32 32 32 33 34 34 34 34 34 34 34 34 35 36 39 43 44 41 39 38 38
34 34 34 34 34 34 31 29 29 29 28 27 28 28 27 25 24 24 23 23 23 23 23 22 22 21 21 22 22 23 24 24 24 24 25 25 25 25 24 24 24 23 23 22 22 21 21 21 22 23 24 24 24 25 26 26 28 29 30 31 33 35 37 41 44 44 43 40 38 37 36 36 35 35 34 34 34 34 34 34 34 33 33 33 33 33 34 34 34 34 34 34 34 34 34 35 37 40 42 40 40 39 37
34 34 34 34 33 33 31 29 29 30 28 26 27 30 32 28 25 23 22 23 23 23 22 21 20 20 20 21 22 23 24 25 25 25 25 26 26 26 25 25 25 25 24 24 24 24 24 24 24 25 26 27 28 28 29 30 31 32 33 34 35 35 36 38 40 42 41 39 37 36 36 35 35 35 34 34 34 34 34 34 34 34 33 33 33 33 33 34 34 33 33 33 33 33 33 34 35 36 38 38 38 38 36
33 33 32 32 32 32 31 29 29 30 28 24 25 29 31 29 25 22 20 20 20 20 19 19 18 19 20 21 22 24 25 26 26 27 27 27 27 27 27 27 27 26 26 27 27 27 27 27 28 28 29 30 31 32 33 33 34 35 35 35 36 36 36 36 37 38 38 37 36 36 35 35 35 34 34 34 34 34 34 34 34 34 33 33 33 33 33 33 33 33 32 32 32 32 32 32 32 33 33 34 35 36 35
31 30 28 29 30 31 31 29 27 26 25 22 23 27 29 29 25 20 18 17 17 17 17 17 18 19 20 22 23 25 26 27 27 28 28 28 28 28 28 28 28 28 29 29 29 29 30 30 31 31 32 33 33 34 35 35 35 36 36 36 36 36 36 36 36 36 36 36 35 35 35 34 34 34 34 34 34 34 34 33 34 33 33 33 33 33 33 33 32 32 32 32 32 31 31 31 31 31 31 31 32 32 32
29 27 24 24 27 29 30 27 25 23 22 19 21 25 27 28 24 20 18 17 17 17 17 17 18 20 21 23 24 25 27 27 28 29 30 30 30 30 30 30 30 30 31 31 31 32 32 32 33 33 33 34 34 35 35 35 36 36 36 36 36 36 36 35 35 35 34 34 34 34 34 34 34 34 34 34 34 34 33 33 33 33 33 33 33 33 33 33 33 33 33 32 32 32 32 32 32 32 31 31 31 31 31
28 27 23 22 24 26 26 23 20 18 18 18 20 22 25 26 24 20 17 16 16 17 17 18 19 21 22 24 25 27 27 28 29 30 31 31 31 31 31 31 32 32 32 32 33 33 33 33 34 34 34 34 34 35 35 35 35 36 36 36 36 35 35 35 34 34 34 33 33 33 33 34 34 34 34 34 34 33 33 33 33 33 33 33 33 33 33 33 33 34 34 33 34 34 34 34 33 33 33 33 32 31 31
28 27 25 25 25 24 23 20 19 19 19 18 18 20 22 24 22 19 17 17 17 17 18 19 21 22 24 25 27 28 29 29 30 31 32 32 33 33 32 32 33 33 33 33 33 33 34 34 34 34 34 34 34 34 35 35 35 36 36 35 35 35 35 34 34 34 33 33 33 34 34 34 34 35 34 34 34 34 34 33 34 34 33 33 33 33 33 34 34 34 34 35 35 35 35 35 35 35 35 34 34 33 32
28 27 25 25 24 24 23 22 21 21 21 19 20 23 24 23 21 19 17 17 17 18 19 21 22 24 25 27 28 29 30 31 31 32 33 33 33 34 34 33 33 33 34 34 33 33 33 33 34 34 34 34 34 35 35 35 35 35 35 35 35 35 35 34 34 34 34 34 34 35 35 35 35 36 35 35 35 35 35 35 34 34 34 34 34 34 34 34 34 35 35 35 36 36 36 36 36 36 36 36 35 35 34
27 27 25 23 22 23 24 24 24 23 22 20 22 25 27 24 21 19 16 17 17 19 20 22 23 25 27 28 29 31 31 32 32 33 33 34 34 34 34 34 34 34 34 34 33 33 33 33 33 33 34 34 34 35 35 35 35 35 36 35 35 35 35 35 35 35 35 35 36 36 36 37 37 37 36 36 36 36 36 35 35 35 35 35 35 34 34 35 35 35 36 36 37 37 37 37 37 37 37 37 36 36 36
26 26 26 24 23 23 24 25 25 24 23 21 22 25 28 25 21 19 17 17 18 20 21 23 24 26 27 29 30 31 31 32 33 33 34 34 34 34 34 34 34 33 33 33 33 33 33 33 33 33 33 33 34 34 35 35 35 35 36 36 36 36 36 36 36 36 37 37 37 38 38 38 38 38 37 37 37 37 36 36 36 36 35 35 35 35 34 35 35 35 36 37 37 37 37 37 37 37 37 37 37 37 37
25 26 27 26 25 25 25 25 24 23 22 21 21 22 26 23 20 18 17 18 19 20 22 23 25 26 28 29 30 31 31 32 33 33 33 33 34 34 34 33 33 33 33 33 33 33 33 33 33 33 33 33 34 35 35 36 36 36 36 36 36 36 37 37 37 38 38 39 39 39 39 39 39 38 38 38 37 37 37 37 36 36 36 35 35 35 34 34 35 35 36 37 37 37 37 37 37 37 37 37 37 37 37
24 25 26 26 26 26 25 24 22 21 22 22 21 21 22 21 19 18 18 18 19 20 21 23 24 26 27 28 29 30 30 31 32 32 32 32 32 33 33 33 32 32 32 32 32 33 33 33 33 33 33 34 35 35 36 36 37 37 37 37 37 37 38 38 39 39 40 40 40 40 40 40 39 39 39 38 38 38 37 37 37 36 36 36 36 35 35 35 35 35 35 36 36 37 37 37 37 37 37 37 37 37 37
22 23 24 25 25 26 26 24 24 25 25 24 22 21 20 20 19 18 18 18 19 20 21 22 24 25 26 27 28 29 30 30 31 31 31 31 31 31 32 32 32 32 31 32 32 32 33 33 33 33 34 35 35 36 36 37 37 37 38 38 38 39 39 40 40 41 41 41 41 41 40 40 40 40 39 39 39 38 38 38 38 37 37 37 37 36 36 36 36 36 36 36 36 36 36 37 37 37 37 37 37 37 38
23 22 23 24 26 26 27 27 27 28 28 26 24 22 20 20 19 19 18 18 19 20 21 22 23 24 25 27 28 28 29 29 30 30 30 31 31 31 31 31 31 31 31 31 32 32 33 33 34 34 35 35 36 36 37 37 38 38 38 39 39 40 40 41 41 41 41 41 41 41 41 41 41 40 40 40 40 39 39 39 39 39 38 39 38 38 38 38 38 37 37 37 37 36 36 37 37 37 37 37 37 38 38
24 23 24 26 27 27 28 28 29 29 28 26 24 22 19 19 19 18 18 19 19 20 21 22 23 24 25 26 27 28 28 29 29 30 30 30 30 31 31 31 31 32 32 32 32 32 33 34 34 35 36 36 36 37 37 38 38 39 39 40 40 41 41 42 42 42 42 42 42 42 42 42 41 41 41 41 41 40 40 40 40 40 40 40 40 40 40 39 39 39 38 38 38 37 37 37 37 37 37 38 38 39 39
25 24 24 26 27 28 28 29 29 29 28 26 24 22 19 18 18 18 18 19 19 20 21 22 23 24 25 26 27 28 28 29 29 30 30 30 31 31 31 31 32 32 32 32 33 33 33 34 35 36 36 37 37 37 38 38 39 39 40 41 41 42 42 42 43 43 43 43 43 43 43 43 42 42 42 42 42 42 42 42 42 41 41 41 41 41 41 41 40 40 40 39 39 38 38 38 38 38 38 39 39 40 40
26 24 23 26 27 28 29 29 29 29 29 27 24 21 19 18 18 18 18 19 19 20 20 21 23 24 25 26 27 28 28 29 29 30 30 31 31 31 31 32 32 32 33 33 33 34 34 34 35 36 36 37 37 38 38 39 39 40 41 41 42 43 43 43 44 44 44 44 44 44 43 43 43 43 43 43 43 43 43 43 43 43 43 42 42 42 42 41 41 41 40 40 39 39 39 39 39 39 40 40 41 42 43
26 25 24 25 26 27 28 29 30 30 30 28 25 22 19 18 18 18 18 19 19 20 20 21 22 23 25 26 27 27 28 29 29 30 30 31 31 32 32 32 32 33 33 33 34 34 35 35 35 36 36 37 37 38 39 39 40 41 42 42 43 43 44 44 45 45 45 45 45 45 45 45 44 44 45 45 45 45 45 44 44 44 44 43 43 43 42 42 42 41 41 41 41 40 40 40 40 40 40 41 43 44 45
26 27 26 26 26 26 28 30 31 31 31 29 26 23 20 18 18 18 18 19 19 19 20 21 22 23 24 26 27 27 28 29 29 30 30 31 31 32 32 32 33 33 33 34 34 34 35 35 35 36 36 37 38 38 39 40 41 42 42 43 43 44 45 45 45 46 46 46 46 46 46 45 45 45 45 45 45 45 45 45 45 45 45 45 44 44 43 43 43 42 42 42 42 42 42 41 41 41 42 42 44 45 46
26 27 28 28 27 27 28 30 31 31 31 29 27 24 21 20 19 18 18 18 19 19 20 20 22 23 24 25 26 27 28 29 29 30 30 31 31 31 32 32 33 33 33 34 34 34 35 35 35 36 36 37 38 39 40 41 42 42 43 44 44 45 45 46 46 46 46 46 46 46 47 46 46 46 46 46 46 46 46 46 46 46 46 45 45 44 44 44 43 43 44 44 44 44 43 43 43 43 43 44 44 45 47
25 27 28 29 28 28 28 29 31 31 31 29 27 25 22 21 20 19 19 19 19 19 19 20 21 22 23 25 26 27 28 29 29 30 30 30 31 31 32 32 32 33 33 34 34 34 35 35 36 36 37 38 39 40 40 42 42 43 44 45 45 45 45 46 46 46 46 46 46 46 47 47 47 47 46 46 46 46 46 46 46 46 46 46 45 45 44 44 45 45 45 46 46 46 46 46 45 45 45 45 46 46 47
25 26 28 28 28 27 26 28 30 31 30 29 27 25 23 22 21 21 20 20 20 20 20 20 21 22 23 24 25 26 27 28 29 29 30 30 31 31 31 32 32 33 33 33 34 34 35 35 36 37 38 39 40 41 41 42 44 44 45 45 45 45 45 45 45 45 45 45 45 45 46 46 47 47 47 46 46 47 47 47 46 46 46 46 46 45 45 45 46 47 48 48 49 49 49 49 49 49 48 48 48 48 49
26 26 27 28 28 27 26 27 29 30 29 28 27 25 24 24 23 22 21 21 21 21 21 20 21 21 22 23 24 25 27 28 28 29 30 30 30 31 31 32 32 33 33 34 34 35 35 36 37 38 39 40 41 42 42 43 44 45 45 45 45 45 45 45 44 44 44 44 44 45 45 45 46 46 46 46 46 46 47 47 47 47 46 46 46 46 47 48 49 50 51 52 53 53 54 54 53 53 53 52 52 51 51
27 26 27 28 28 28 28 28 29 29 28 27 26 26 25 25 24 23 22 22 22 21 21 21 20 21 21 22 23 24 25 26 27 28 29 30 30 31 31 32 32 33 33 34 35 35 36 37 38 38 39 41 42 43 43 44 45 45 45 45 44 44 44 44 43 43 43 43 43 44 44 44 45 45 45 45 46 46 47 47 48 48 48 48 49 50 51 52 53 55 56 57 58 58 58 59 59 58 58 57 57 56 55
28 27 27 27 28 28 29 30 30 29 28 27 26 26 25 26 25 24 23 23 23 23 22 22 21 21 21 21 22 23 24 25 26 27 28 29 29 30 31 32 32 33 34 34 35 36 36 37 38 39 40 41 42 43 44 44 44 44 44 43 43 42 42 42 42 42 42 42 42 43 43 43 44 44 45 45 46 47 48 49 50 50 51 53 54 55 57 58 60 61 61 62 62 62 63 63 63 63 63 63 62 61 60
29 28 28 27 27 28 29 30 31 30 29 28 27 26 26 26 25 25 24 24 24 24 24 23 23 22 22 22 22 23 23 24 24 25 26 27 28 29 30 31 32 32 33 34 35 36 37 38 39 40 40 41 41 42 43 43 42 42 42 41 41 41 41 41 41 41 41 42 42 42 43 43 44 44 45 47 48 50 51 52 54 55 57 59 61 62 64 64 65 65 66 66 65 66 66 66 66 66 66 66 66 65 65
28 28 28 28 27 27 28 31 31 31 29 28 27 27 26 26 26 26 25 25 25 25 25 25 25 25 25 24 24 24 24 24 24 25 26 26 27 28 29 30 31 32 33 34 35 36 37 38 39 39 40 40 40 40 41 41 41 40 40 40 40 40 40 41 41 41 42 42 43 43 44 45 46 47 48 50 51 53 55 56 58 60 63 65 66 67 68 68 68 68 68 68 67 67 67 67 67 67 67 68 68 68 68
28 28 28 28 28 28 29 31 31 31 29 29 28 27 27 26 27 27 27 26 26 26 27 27 27 27 27 27 28 28 28 27 26 26 27 27 28 28 29 30 30 31 32 33 34 35 36 37 38 38 38 38 38 39 39 39 39 40 40 41 41 41 42 42 42 42 43 44 45 46 47 48 50 51 52 54 55 56 58 59 60 62 64 66 67 68 69 69 69 69 69 69 69 68 68 68 68 68 68 69 69 70 70
28 28 28 28 28 29 30 32 31 30 29 28 28 28 28 27 27 28 28 28 28 28 28 28 28 29 30 30 31 32 32 31 31 30 31 31 31 32 31 31 31 32 32 33 33 34 35 36 37 38 38 38 38 38 39 39 40 41 42 43 43 44 44 44 44 44 44 45 47 48 50 52 53 54 55 56 57 58 58 59 60 61 62 63 64 65 66 67 67 68 68 68 68 69 69 69 68 68 68 68 69 69 70
28 28 27 28 28 29 30 31 31 30 28 28 28 28 28 28 28 28 28 29 29 29 29 29 30 31 33 33 34 34 35 36 36 37 37 36 36 36 36 35 34 33 32 32 33 34 35 36 37 38 38 38 39 39 39 40 41 42 43 44 45 46 46 45 45 44 45 46 47 49 51 53 54 55 56 57 57 57 58 58 58 59 59 60 61 62 64 65 65 66 66 67 68 68 69 69 69 68 68 68 68 68 68
28 28 28 28 28 28 29 30 30 28 27 27 28 28 28 28 28 28 29 29 29 30 31 32 32 33 34 35 36 36 37 38 39 40 40 40 39 39 38 38 36 35 34 34 35 36 37 38 39 39 39 39 39 39 39 40 42 43 44 46 46 47 47 47 46 45 45 45 46 48 50 52 53 54 55 56 57 57 58 58 58 59 59 60 61 62 63 64 65 65 66 66 66 67 68 68 68 68 67 67 67 67 67
29 29 28 28 28 28 29 29 28 28 27 27 27 27 27 28 28 28 29 29 30 31 32 33 34 35 36 37 38 38 39 39 40 41 42 42 42 42 41 40 39 38 36 37 37 37 38 40 40 39 38 38 38 38 39 40 42 43 45 46 47 47 47 47 46 45 45 44 45 46 48 49 51 52 54 55 57 58 59 59 59 60 60 60 61 61 62 63 64 64 65 65 65 65 66 66 66 66 65 65 65 65 66
29 29 29 29 29 29 29 29 28 28 27 27 27 27 27 27 28 28 29 30 30 31 32 33 34 35 36 37 38 40 41 41 41 42 43 44 45 45 44 42 41 39 39 40 40 39 38 39 38 37 35 36 37 38 38 40 42 43 44 45 45 45 45 45 45 45 45 44 44 44 45 47 48 50 52 54 56 58 59 59 60 60 59 59 59 60 60 61 62 62 63 63 63 63 64 64 64 63 63 63 63 64 64
30 30 29 29 29 29 29 29 29 28 28 27 28 28 28 28 28 28 29 30 31 31 32 32 33 35 36 37 38 39 40 41 42 43 44 44 45 46 47 44 42 41 41 42 43 43 41 40 38 36 36 38 39 40 40 42 42 42 42 43 43 43 43 43 44 44 43 43 43 43 43 45 46 48 50 53 54 56 58 59 59 59 59 58 57 57 56 57 59 60 60 61 61 61 61 61 61 61 61 61 62 62 62
30 30 30 30 30 30 30 29 29 29 28 28 28 29 29 29 29 29 30 31 32 32 33 34 34 35 35 37 38 39 40 40 41 41 43 44 44 45 45 46 46 45 45 45 45 45 46 44 42 40 38 41 43 44 44 44 43 41 40 40 40 41 41 41 41 41 41 40 40 41 41 43 45 46 48 50 52 54 56 57 57 57 57 56 55 54 53 54 55 56 57 58 59 59 59 59 59 59 59 60 60 61 60
30 30 30 30 30 30 30 29 29 29 29 29 29 29 30 30 30 31 31 32 33 33 34 34 35 35 36 37 38 39 40 39 39 40 41 42 43 43 44 44 45 46 48 48 47 46 47 47 47 45 40 40 43 46 48 47 45 43 41 40 39 39 39 39 39 39 39 39 40 40 41 42 43 44 45 46 48 50 51 53 54 54 54 53 53 52 52 53 53 55 56 57 57 58 58 58 58 58 58 59 60 60 58
30 30 30 30 30 30 30 30 30 30 29 29 29 30 30 30 31 31 32 32 33 33 34 34 35 35 35 36 37 38 39 39 38 38 39 40 41 42 42 42 42 42 43 45 46 47 48 48 48 46 43 42 42 45 50 52 51 48 45 43 42 41 41 41 41 41 41 41 41 42 43 42 42 42 42 43 44 45 47 49 51 52 53 53 53 53 53 54 54 55 55 56 57 57 57 57 57 58 58 59 59 58 57
31 30 30 30 30 30 30 30 30 30 30 30 30 30 30 30 31 32 32 33 33 33 34 34 35 35 36 36 37 38 38 38 38 38 38 39 39 40 42 42 42 43 43 44 45 46 48 49 48 47 47 47 45 44 46 51 53 53 51 49 48 47 47 47 46 46 45 45 44 44 43 42 41 42 42 44 45 47 48 49 50 51 53 53 54 54 55 55 55 55 56 56 56 56 56 57 58 58 57 57 57 57 57
32 31 31 30 30 30 30 31 31 31 31 31 31 31 31 30 30 31 32 33 34 35 35 35 35 36 36 36 37 38 38 39 38 38 39 40 40 40 42 42 43 43 44 45 46 47 49 50 50 51 52 52 50 48 46 47 50 52 52 51 51 52 52 52 52 51 49 48 47 46 44 42 41 41 43 45 47 48 48 49 49 50 51 52 52 53 53 53 53 54 54 54 54 55 56 56 56 56 55 55 55 56 58
33 32 32 31 31 31 31 31 32 32 33 33 33 33 32 31 31 31 32 33 33 34 35 35 35 36 36 36 36 37 38 39 39 39 39 41 42 42 42 43 43 44 44 45 46 47 49 49 51 53 55 55 54 52 49 46 46 47 48 49 51 53 53 54 54 54 53 51 49 47 45 43 42 42 43 45 46 47 47 47 47 47 48 48 49 49 49 49 50 50 51 52 53 53 54 54 53 53 53 53 54 55 57